Simultaneous Nadir Overpasses (SNOs) Predictions

Prediction of SNOs between AQUA and GOES-15 Satellite Orbit:

Table of predicted SNOs for the next 14.0 days since TLE Epoch: 9/29/2017
Index Date Time (AQUA) AQUA Lat,Lon GOES-15 Lat,Lon Distance(km) Time Diff (sec)
1 09/29/2017 22:40:50 -0.47,-136.32 -0.26,-135.39 106.32 80
2 10/01/2017 22:28:39 0.15,-133.36 -0.26,-135.39 229.66 80
3 10/02/2017 10:49:55 0.91,-138.53 0.24,-135.46 349.53 80
4 10/04/2017 10:37:44 0.28,-135.57 0.24,-135.45 14.29 80
5 10/06/2017 10:25:33 -0.35,-132.62 0.25,-135.44 320.57 80
6 10/06/2017 22:46:58 -0.73,-137.81 -0.23,-135.36 278.88 80
7 10/08/2017 22:34:46 -0.15,-134.85 -0.23,-135.34 55.09 80
8 10/10/2017 22:22:35 0.50,-131.90 -0.23,-135.31 388.14 80
9 10/11/2017 10:43:51 0.54,-137.06 0.21,-135.38 190.74 80
10 10/13/2017 10:31:39 -0.06,-134.10 0.21,-135.34 141.40 80




NCC Satellite Simultaneous Nadir Overpasses (SNOs) Prediction Service
